This is the latest recevied weather packets stored in our database for station/object OE6PLD-13. If no packets are shown the sender has not sent any weather packets the latest 10 day(s).
| Time | Temp. | Humidity | Pressure | Rain* | Wind** | Luminosity | Snow |
|---|---|---|---|---|---|---|---|
| 1777620094 | 13.33° C | 45% | 1014.1 hPa | 0.76 mm | - | 550 W/m² | - |
| 1777619910 | 13.89° C | 46% | 1014.2 hPa | 0.76 mm | - | 502 W/m² | - |
| 1777619727 | 13.89° C | 45% | 1014.2 hPa | 0.76 mm | - | 470 W/m² | - |
| 1777619543 | 13.33° C | 45% | 1014 hPa | 0.76 mm | - | 431 W/m² | - |
| 1777619360 | 13.33° C | 45% | 1014.3 hPa | 0.76 mm | - | 412 W/m² | - |
| 1777619177 | 13.33° C | 45% | 1014 hPa | 0.76 mm | - | 393 W/m² | - |
| 1777618993 | 13.89° C | 44% | 1014.2 hPa | 0.76 mm | - | 384 W/m² | - |
| 1777618810 | 13.33° C | 45% | 1014.2 hPa | 0.76 mm | - | 391 W/m² | - |
| 1777618627 | 13.89° C | 44% | 1014.1 hPa | 0.76 mm | - | 391 W/m² | - |
| 1777618443 | 12.78° C | 45% | 1014.3 hPa | 0.76 mm | - | 376 W/m² | - |
| 1777618260 | 12.78° C | 47% | 1014.1 hPa | 0.76 mm | - | 357 W/m² | - |
| 1777618077 | 11.67° C | 49% | 1014.3 hPa | 0.76 mm | - | 348 W/m² | - |
| 1777617893 | 11.67° C | 49% | 1014.1 hPa | 0.76 mm | - | 345 W/m² | - |
| 1777617710 | 11.11° C | 50% | 1014.4 hPa | 0.76 mm | - | 333 W/m² | - |
| 1777617527 | 10.56° C | 52% | 1014 hPa | 0.76 mm | - | 317 W/m² | - |
| 1777617343 | 10° C | 52% | 1014.3 hPa | 0.76 mm | - | 297 W/m² | - |
| 1777617160 | 10° C | 52% | 1014.1 hPa | 0.76 mm | - | 297 W/m² | - |
| 1777616976 | 10° C | 53% | 1014.3 hPa | 0.76 mm | - | 307 W/m² | - |
| 1777616793 | 9.44° C | 53% | 1014.2 hPa | 0.76 mm | - | 303 W/m² | - |
| 1777616610 | 9.44° C | 54% | 1014.2 hPa | 0.76 mm | - | 291 W/m² | - |
| 1777616426 | 8.89° C | 54% | 1014.1 hPa | 0.76 mm | - | 278 W/m² | - |
| 1777616243 | 8.89° C | 54% | 1014.3 hPa | 0.76 mm | - | 256 W/m² | - |
| 1777616060 | 8.33° C | 55% | 1014.2 hPa | 0.76 mm | - | 236 W/m² | - |
| 1777615876 | 8.33° C | 56% | 1014.2 hPa | 0.76 mm | - | 248 W/m² | - |
| 1777615693 | 7.78° C | 56% | 1014.3 hPa | 0.76 mm | - | 257 W/m² | - |
* Rain latest hour (hover to see other rain measurements)
** Current wind speed in m/s (hover to see current wind gust speed)